 day,  time,  air_temp(C),  RH(%),  ground_temp10cm(C),  ground_temp20cm(C),  ground_temp40cm(C),  precipitation(mm/h),  Solar_Radiation(MJ/m2h),  lack, 
 06/07/01, 01:00,  17.4,  99,  18.5,  18.4,  17.0,   1.5,  0.00, 
 06/07/01, 02:00,  17.3,  99,  18.4,  18.3,  17.0,   4.0,  0.00, 
 06/07/01, 03:00,  17.1,  99,  18.4,  18.3,  17.0,   1.5,  0.00, 
 06/07/01, 04:00,  17.0,  99,  18.3,  18.2,  17.0,   0.0,  0.00, 
 06/07/01, 05:00,  17.0,  99,  18.3,  18.2,  17.0,   0.0,  0.00, 
 06/07/01, 06:00,  17.0,  99,  18.2,  18.2,  17.0,   0.0,  0.01, 
 06/07/01, 07:00,  17.1,  99,  18.2,  18.1,  16.9,   0.0,  0.07, 
 06/07/01, 08:00,  17.2,  99,  18.2,  18.1,  17.0,   0.5,  0.13, 
 06/07/01, 09:00,  17.1,  99,  18.2,  18.1,  17.0,   2.5,  0.21, 
 06/07/01, 10:00,  17.2,  99,  18.2,  18.0,  17.0,   0.0,  0.18, 
 06/07/01, 11:00,  16.9,  99,  18.3,  18.0,  16.9,   0.0,  0.74, 
 06/07/01, 12:00,  17.4,  99,  18.4,  18.0,  16.9,   0.0,  0.97, 
 06/07/01, 13:00,  17.4,  99,  18.5,  18.0,  17.0,   0.0,  0.74, 
 06/07/01, 14:00,  18.9,  99,  18.8,  18.0,  17.0,   0.0,  1.73, 
 06/07/01, 15:00,  18.1,  99,  19.2,  18.0,  17.0,   0.0,  0.86, 
 06/07/01, 16:00,  19.1,  99,  19.4,  18.0,  17.0,   0.0,  0.86, 
 06/07/01, 17:00,  18.2,  99,  19.6,  18.1,  17.0,   0.0,  0.71, 
 06/07/01, 18:00,  17.7,  99,  19.6,  18.2,  17.0,   0.0,  0.31, 
 06/07/01, 19:00,  16.8,  99,  19.5,  18.2,  17.0,   0.5,  0.08, 
 06/07/01, 20:00,  16.2,  99,  19.4,  18.3,  17.0,   0.0,  0.00, 
 06/07/01, 21:00,  15.8,  99,  19.2,  18.3,  17.0,   0.0,  0.00, 
 06/07/01, 22:00,  15.3,  99,  18.9,  18.4,  17.0,   0.0,  0.00, 
 06/07/01, 23:00,  15.2,  99,  18.8,  18.4,  17.0,   0.5,  0.00, 
 06/07/02, 00:00,  15.0,  99,  18.7,  18.3,  16.9,   0.5,  0.00, 
 06/07/02, 01:00,  16.1,  99,  18.5,  18.3,  16.9,   0.5,  0.00, 
 06/07/02, 02:00,  16.5,  99,  18.4,  18.3,  17.0,   0.0,  0.00, 
 06/07/02, 03:00,  16.9,  97,  18.3,  18.2,  17.0,   0.0,  0.00, 
 06/07/02, 04:00,  16.8,  99,  18.0,  18.2,  17.0,   0.0,  0.00, 
 06/07/02, 05:00,  17.1,  99,  18.1,  18.1,  17.0,   0.0,  0.00, 
 06/07/02, 06:00,  17.6,  97,  18.0,  18.1,  16.9,   0.0,  0.04, 
 06/07/02, 07:00,  18.0,  98,  17.9,  18.0,  17.0,   0.0,  0.34, 
 06/07/02, 08:00,  17.8,  99,  17.9,  18.0,  17.0,   0.0,  0.24, 
 06/07/02, 09:00,  17.0,  99,  17.9,  17.9,  17.0,   1.0,  0.17, 
 06/07/02, 10:00,  17.3,  99,  17.9,  17.9,  17.0,  11.0,  0.21, 
 06/07/02, 11:00,  17.5,  99,  17.9,  17.9,  17.0,   4.0,  0.40, 
 06/07/02, 12:00,  17.1,  99,  18.0,  17.9,  17.0,   0.5,  0.29, 
 06/07/02, 13:00,  17.3,  99,  18.1,  17.8,  17.0,   6.0,  0.23, 
 06/07/02, 14:00,  17.1,  99,  18.1,  17.8,  17.0,   2.0,  0.40, 
 06/07/02, 15:00,  16.9,  99,  18.1,  17.8,  17.0,   0.0,  0.41, 
 06/07/02, 16:00,  16.9,  99,  18.2,  17.8,  17.0,   0.0,  0.45, 
 06/07/02, 17:00,  16.2,  99,  18.3,  17.8,  17.0,   0.0,  0.31, 
 06/07/02, 18:00,  15.9,  99,  18.3,  17.8,  16.9,   0.5,  0.28, 
 06/07/02, 19:00,  14.9,  99,  18.3,  17.9,  17.0,   0.0,  0.00, 
 06/07/02, 20:00,  15.0,  99,  18.1,  17.8,  17.0,   0.0,  0.00, 
 06/07/02, 21:00,  15.0,  99,  18.0,  17.9,  17.0,   0.0,  0.00, 
 06/07/02, 22:00,  15.7,  94,  17.8,  17.8,  17.0,   0.0,  0.00, 
 06/07/02, 23:00,  14.5,  99,  17.7,  17.8,  17.0,   0.0,  0.00, 
 06/07/03, 00:00,  14.5,  99,  17.6,  17.8,  17.0,   0.0,  0.00, 
 06/07/03, 01:00,  14.5,  99,  17.6,  17.7,  16.9,   0.0,  0.00, 
 06/07/03, 02:00,  14.8,  99,  17.4,  17.7,  17.0,   0.0,  0.00, 
 06/07/03, 03:00,  14.7,  99,  17.3,  17.6,  16.9,   0.0,  0.00, 
 06/07/03, 04:00,  15.0,  99,  17.3,  17.6,  16.9,   0.0,  0.00, 
 06/07/03, 05:00,  14.8,  99,  17.2,  17.5,  16.9,   0.0,  0.00, 
 06/07/03, 06:00,  15.1,  99,  17.0,  17.5,  17.0,   0.0,  0.10, 
 06/07/03, 07:00,  14.8,  99,  17.1,  17.5,  17.0,   0.5,  0.10, 
 06/07/03, 08:00,  15.2,  99,  17.0,  17.4,  16.9,   0.0,  0.28, 
 06/07/03, 09:00,  16.3,  99,  17.2,  17.4,  16.9,   0.0,  0.76, 
 06/07/03, 10:00,  16.3,  99,  17.3,  17.3,  16.9,   0.5,  0.57, 
 06/07/03, 11:00,  16.9,  99,  17.5,  17.3,  16.9,   0.5,  0.97, 
 06/07/03, 12:00,  19.1,  96,  17.7,  17.3,  16.8,   0.0,  2.08, 
 06/07/03, 13:00,  18.7,  99,  18.6,  17.3,  16.9,   0.0,  2.16, 
 06/07/03, 14:00,  16.9,  99,  19.0,  17.4,  16.9,   2.0,  0.40, 
 06/07/03, 15:00,  17.2,  99,  19.1,  17.5,  16.9,   4.5,  0.80, 
 06/07/03, 16:00,  17.8,  99,  19.2,  17.6,  16.9,   0.0,  1.27, 
 06/07/03, 17:00,  17.8,  99,  19.3,  17.8,  16.7,   0.0,  0.81, 
 06/07/03, 18:00,  17.0,  93,  19.3,  17.9,  16.8,   0.0,  0.31, 
 06/07/03, 19:00,  16.2,  99,  19.2,  17.9,  16.8,   0.0,  0.14, 
 06/07/03, 20:00,  15.7,  99,  19.0,  18.0,  16.8,   0.0,  0.00, 
 06/07/03, 21:00,  13.8,  99,  18.7,  18.0,  16.8,   0.0,  0.00, 
 06/07/03, 22:00,  14.2,  99,  18.5,  18.1,  16.8,   0.0,  0.00, 
 06/07/03, 23:00,  14.5,  99,  18.3,  18.0,  16.8,   0.0,  0.00, 
 06/07/04, 00:00,  14.2,  99,  18.2,  18.0,  16.9,   0.0,  0.00, 
 06/07/04, 01:00,  13.7,  99,  18.0,  18.0,  16.8,   0.0,  0.00, 
 06/07/04, 02:00,  13.8,  99,  17.7,  17.9,  16.9,   0.0,  0.00, 
 06/07/04, 03:00,  13.4,  99,  17.6,  17.9,  16.8,   0.0,  0.00, 
 06/07/04, 04:00,  12.9,  99,  17.3,  17.7,  16.8,   0.0,  0.00, 
 06/07/04, 05:00,  12.3,  99,  17.2,  17.7,  16.9,   0.0,  0.00, 
 06/07/04, 06:00,  12.7,  99,  17.1,  17.7,  16.9,   0.0,  0.01, 
 06/07/04, 07:00,  13.6,  99,  16.9,  17.6,  16.9,   0.0,  0.45, 
 06/07/04, 08:00,  14.3,  99,  17.0,  17.5,  16.9,   0.0,  1.48, 
 06/07/04, 09:00,  15.4,  93,  17.4,  17.4,  16.9,   0.0,  1.20, 
 06/07/04, 10:00,  16.0,  91,  17.6,  17.4,  16.9,   0.0,  1.46, 
 06/07/04, 11:00,  17.7,  82,  17.9,  17.4,  16.9,   0.0,  2.16, 
 06/07/04, 12:00,  20.1,  72,  18.7,  17.4,  16.9,   0.0,  3.71, 
 06/07/04, 13:00,  21.5,  70,  19.9,  17.5,  16.9,   0.0,  3.73, 
 06/07/04, 14:00,  21.4,  70,  20.5,  17.6,  16.9,   0.0,  2.87, 
 06/07/04, 15:00,  19.8,  77,  20.7,  17.7,  16.7,   0.0,  1.74, 
 06/07/04, 16:00,  20.8,  74,  20.7,  18.0,  16.8,   0.0,  2.21, 
 06/07/04, 17:00,  19.0,  84,  20.9,  18.2,  16.8,   0.0,  1.41, 
 06/07/04, 18:00,  18.3,  90,  20.9,  18.3,  16.8,   0.0,  0.62, 
 06/07/04, 19:00,  16.6,  97,  20.7,  18.5,  16.8,   0.0,  0.15, 
 06/07/04, 20:00,  15.0,  99,  20.4,  18.6,  16.8,   0.0,  0.00, 
 06/07/04, 21:00,  15.5,  98,  20.1,  18.7,  16.8,   0.0,  0.00, 
 06/07/04, 22:00,  15.5,  98,  19.8,  18.7,  16.8,   0.0,  0.00, 
 06/07/04, 23:00,  14.9,  99,  19.5,  18.7,  16.9,   0.0,  0.00, 
 06/07/05, 00:00,  15.3,  98,  19.2,  18.7,  16.9,   0.0,  0.00, 
 06/07/05, 01:00,  15.4,  99,  18.8,  18.6,  16.9,   0.0,  0.00, 
 06/07/05, 02:00,  15.2,  99,  18.7,  18.6,  16.9,   0.0,  0.00, 
 06/07/05, 03:00,  14.8,  99,  18.4,  18.4,  16.9,   0.0,  0.00, 
 06/07/05, 04:00,  14.6,  99,  18.2,  18.4,  16.8,   0.0,  0.00, 
 06/07/05, 05:00,  14.9,  95,  18.1,  18.4,  16.9,   0.0,  0.00, 
 06/07/05, 06:00,  15.2,  96,  18.0,  18.3,  17.0,   0.0,  0.01, 
 06/07/05, 07:00,  15.4,  99,  17.8,  18.2,  17.0,   0.0,  0.19, 
 06/07/05, 08:00,  16.6,  98,  17.7,  18.1,  16.9,   0.5,  0.21, 
 06/07/05, 09:00,  15.7,  99,  17.7,  18.1,  17.0,   2.0,  0.21, 
 06/07/05, 10:00,  15.9,  99,  17.7,  18.0,  17.0,   2.5,  0.33, 
 06/07/05, 11:00,  16.1,  99,  17.7,  17.9,  17.0,   0.5,  0.43, 
 06/07/05, 12:00,  16.7,  99,  17.8,  17.9,  17.0,   0.5,  0.56, 
 06/07/05, 13:00,  17.2,  99,  18.0,  17.9,  17.0,   0.0,  0.42, 
 06/07/05, 14:00,  17.1,  99,  18.0,  17.8,  17.0,   0.5,  0.44, 
 06/07/05, 15:00,  18.1,  99,  18.1,  17.8,  17.0,   0.0,  0.63, 
 06/07/05, 16:00,  17.5,  99,  18.3,  17.8,  16.9,   0.5,  0.12, 
 06/07/05, 17:00,  17.6,  99,  18.3,  17.8,  17.0,   0.0,  0.10, 
 06/07/05, 18:00,  17.6,  99,  18.3,  17.8,  17.0,   0.0,  0.00, 
 06/07/05, 19:00,  17.7,  99,  18.2,  17.8,  17.0,   0.0,  0.00, 
 06/07/05, 20:00,  17.6,  99,  18.2,  17.8,  17.0,   0.5,  0.00, 
 06/07/05, 21:00,  17.9,  99,  18.0,  17.7,  17.0,   0.0,  0.00, 
 06/07/05, 22:00,  17.7,  99,  18.0,  17.8,  17.0,   0.0,  0.00, 
 06/07/05, 23:00,  17.7,  99,  18.0,  17.8,  17.0,   0.0,  0.00, 
 06/07/06, 00:00,  17.6,  99,  18.0,  17.8,  16.9,   0.0,  0.00, 
 06/07/06, 01:00,  17.6,  99,  17.9,  17.8,  17.0,   0.5,  0.00, 
 06/07/06, 02:00,  17.5,  99,  17.8,  17.8,  17.0,   1.5,  0.00, 
 06/07/06, 03:00,  17.6,  99,  17.9,  17.7,  17.0,   0.5,  0.00, 
 06/07/06, 04:00,  17.3,  99,  17.8,  17.7,  17.0,   2.5,  0.00, 
 06/07/06, 05:00,  16.9,  99,  17.8,  17.7,  17.0,   0.5,  0.00, 
 06/07/06, 06:00,  16.3,  99,  17.7,  17.7,  16.9,   0.0,  0.02, 
 06/07/06, 07:00,  16.4,  99,  17.7,  17.7,  16.9,   0.0,  0.17, 
 06/07/06, 08:00,  17.4,  99,  17.7,  17.7,  17.0,   0.0,  0.57, 
 06/07/06, 09:00,  18.1,  99,  17.8,  17.6,  16.9,   0.0,  0.84, 
 06/07/06, 10:00,  20.0,  97,  18.0,  17.6,  17.0,   0.0,  2.11, 
 06/07/06, 11:00,  18.8,  95,  18.6,  17.6,  17.0,   0.0,  1.15, 
 06/07/06, 12:00,  19.1,  93,  18.9,  17.7,  17.0,   0.0,  1.13, 
 06/07/06, 13:00,  20.1,  94,  19.3,  17.7,  17.0,   0.0,  0.99, 
 06/07/06, 14:00,  20.0,  92,  19.5,  17.8,  16.9,   0.0,  1.75, 
 06/07/06, 15:00,  20.1,  92,  19.8,  17.9,  16.9,   0.0,  1.29, 
 06/07/06, 16:00,  18.9,  97,  19.9,  18.0,  16.9,   0.0,  0.38, 
 06/07/06, 17:00,  17.8,  99,  20.0,  18.2,  16.9,   0.5,  0.20, 
 06/07/06, 18:00,  18.0,  99,  19.9,  18.3,  16.9,   0.5,  0.31, 
 06/07/06, 19:00,  17.4,  99,  19.8,  18.3,  16.9,   0.0,  0.15, 
 06/07/06, 20:00,  17.1,  99,  19.7,  18.4,  16.9,   0.0,  0.00, 
 06/07/06, 21:00,  16.9,  99,  19.5,  18.4,  17.0,   0.0,  0.00, 
 06/07/06, 22:00,  16.7,  99,  19.3,  18.5,  17.0,   0.0,  0.00, 
 06/07/06, 23:00,  16.6,  99,  19.1,  18.5,  17.0,   0.0,  0.00, 
 06/07/07, 00:00,  16.5,  99,  18.9,  18.5,  17.0,   0.0,  0.00, 
 06/07/07, 01:00,  16.2,  99,  18.8,  18.4,  17.0,   0.0,  0.00, 
 06/07/07, 02:00,  15.8,  99,  18.7,  18.4,  17.0,   0.0,  0.00, 
 06/07/07, 03:00,  15.4,  99,  18.6,  18.4,  17.0,   0.0,  0.00, 
 06/07/07, 04:00,  15.6,  99,  18.4,  18.3,  16.9,   0.0,  0.00, 
 06/07/07, 05:00,  15.2,  99,  18.3,  18.3,  16.9,   0.0,  0.00, 
 06/07/07, 06:00,  16.0,  99,  18.2,  18.2,  17.1,   0.0,  0.14, 
 06/07/07, 07:00,  17.5,  99,  18.1,  18.2,  17.0,   0.0,  0.86, 
 06/07/07, 08:00,  18.5,  93,  18.3,  18.1,  17.1,   0.0,  1.56, 
 06/07/07, 09:00,  18.4,  91,  18.5,  18.0,  17.1,   0.0,  1.43, 
 06/07/07, 10:00,  19.8,  85,  18.8,  18.1,  17.1,   0.0,  1.77, 
 06/07/07, 11:00,  19.9,  86,  19.4,  18.1,  17.1,   0.0,  1.79, 
 06/07/07, 12:00,  20.8,  81,  19.8,  18.1,  17.1,   0.0,  1.80, 
 06/07/07, 13:00,  21.6,  79,  20.2,  18.2,  17.1,   0.0,  2.01, 
 06/07/07, 14:00,  21.7,  82,  20.6,  18.3,  17.1,   0.0,  2.46, 
 06/07/07, 15:00,  21.0,  86,  20.9,  18.4,  17.1,   0.0,  1.26, 
 06/07/07, 16:00,  20.7,  89,  21.0,  18.6,  17.1,   0.0,  1.49, 
 06/07/07, 17:00,  20.4,  89,  21.2,  18.7,  17.1,   0.0,  1.12, 
 06/07/07, 18:00,  19.3,  91,  21.2,  18.8,  17.1,   0.0,  0.61, 
 06/07/07, 19:00,  18.5,  95,  21.1,  18.9,  17.1,   0.0,  0.17, 
 06/07/07, 20:00,  17.4,  99,  20.9,  19.1,  17.1,   0.5,  0.00, 
 06/07/07, 21:00,  16.6,  99,  20.6,  19.1,  17.1,   0.0,  0.00, 
 06/07/07, 22:00,  17.1,  96,  20.3,  19.2,  17.1,   0.0,  0.00, 
 06/07/07, 23:00,  15.9,  99,  20.0,  19.2,  17.2,   0.0,  0.00, 
 06/07/08, 00:00,  17.1,  97,  19.8,  19.1,  17.2,   0.0,  0.00, 
 06/07/08, 01:00,  16.6,  99,  19.6,  19.1,  17.2,   0.0,  0.00, 
 06/07/08, 02:00,  16.2,  99,  19.4,  19.0,  17.2,   0.0,  0.00, 
 06/07/08, 03:00,  16.5,  99,  19.1,  18.9,  17.2,   0.0,  0.00, 
 06/07/08, 04:00,  16.8,  99,  19.1,  18.9,  17.3,   0.0,  0.00, 
 06/07/08, 05:00,  16.4,  99,  18.8,  18.8,  17.2,   0.0,  0.00, 
 06/07/08, 06:00,  16.7,  99,  18.7,  18.7,  17.2,   0.0,  0.08, 
 06/07/08, 07:00,  19.3,  92,  18.7,  18.7,  17.3,   0.0,  0.80, 
 06/07/08, 08:00,  19.7,  92,  18.7,  18.7,  17.3,   0.0,  1.49, 
 06/07/08, 09:00,  19.4,  91,  19.0,  18.6,  17.3,   0.0,  1.59, 
 06/07/08, 10:00,  20.9,  84,  19.5,  18.6,  17.3,   0.0,  1.97, 
 06/07/08, 11:00,  21.6,  84,  20.0,  18.6,  17.3,   0.0,  2.09, 
 06/07/08, 12:00,  22.3,  80,  20.5,  18.6,  17.3,   0.0,  2.62, 
 06/07/08, 13:00,  25.5,  67,  21.3,  18.7,  17.3,   0.0,  3.39, 
 06/07/08, 14:00,  25.4,  63,  21.8,  18.9,  17.3,   0.0,  2.98, 
 06/07/08, 15:00,  23.8,  73,  21.9,  19.0,  17.4,   0.0,  1.58, 
 06/07/08, 16:00,  22.6,  81,  21.9,  19.2,  17.4,   0.0,  1.13, 
 06/07/08, 17:00,  22.2,  90,  21.9,  19.3,  17.5,   0.0,  1.02, 
 06/07/08, 18:00,  21.5,  93,  21.9,  19.6,  17.4,   0.0,  0.72, 
 06/07/08, 19:00,  19.8,  99,  21.8,  19.6,  17.4,   0.0,  0.26, 
 06/07/08, 20:00,  18.7,  99,  21.6,  19.7,  17.4,   0.0,  0.00, 
 06/07/08, 21:00,  18.4,  99,  21.3,  19.8,  17.4,   0.0,  0.00, 
 06/07/08, 22:00,  18.0,  99,  21.0,  19.8,  17.4,   0.0,  0.00, 
 06/07/08, 23:00,  17.4,  99,  20.7,  19.8,  17.4,   0.0,  0.00, 
 06/07/09, 00:00,  16.6,  99,  20.5,  19.8,  17.5,   0.0,  0.00, 
 06/07/09, 01:00,  16.6,  99,  20.2,  19.7,  17.5,   0.0,  0.00, 
 06/07/09, 02:00,  18.2,  96,  20.0,  19.7,  17.5,   0.0,  0.00, 
 06/07/09, 03:00,  18.9,  91,  19.9,  19.6,  17.5,   0.0,  0.00, 
 06/07/09, 04:00,  17.7,  99,  19.8,  19.5,  17.5,   0.0,  0.00, 
 06/07/09, 05:00,  17.4,  99,  19.6,  19.5,  17.6,   1.0,  0.00, 
 06/07/09, 06:00,  17.5,  99,  19.5,  19.4,  17.6,   0.5,  0.02, 
 06/07/09, 07:00,  18.0,  99,  19.4,  19.3,  17.6,   1.0,  0.23, 
 06/07/09, 08:00,  19.6,  99,  19.4,  19.3,  17.6,   0.0,  0.96, 
 06/07/09, 09:00,  20.4,  99,  19.6,  19.2,  17.6,   0.0,  0.81, 
 06/07/09, 10:00,  19.8,  99,  19.8,  19.2,  17.6,   0.0,  0.80, 
 06/07/09, 11:00,  20.4,  99,  20.1,  19.2,  17.7,   0.0,  1.18, 
 06/07/09, 12:00,  22.1,  91,  20.4,  19.2,  17.7,   0.0,  1.51, 
 06/07/09, 13:00,  20.6,  99,  20.7,  19.2,  17.7,   0.0,  1.05, 
 06/07/09, 14:00,  20.8,  99,  20.9,  19.3,  17.7,   0.5,  0.84, 
 06/07/09, 15:00,  20.1,  99,  21.1,  19.3,  17.7,   0.0,  0.59, 
 06/07/09, 16:00,  19.8,  99,  21.2,  19.4,  17.7,   0.5,  0.63, 
 06/07/09, 17:00,  20.1,  99,  21.2,  19.6,  17.7,   0.0,  0.43, 
 06/07/09, 18:00,  19.7,  99,  21.2,  19.6,  17.7,   0.0,  0.27, 
 06/07/09, 19:00,  19.0,  99,  21.1,  19.7,  17.7,   0.0,  0.10, 
 06/07/09, 20:00,  18.9,  99,  21.0,  19.7,  17.7,   1.5,  0.00, 
 06/07/09, 21:00,  18.4,  99,  20.8,  19.7,  17.7,   0.5,  0.00, 
 06/07/09, 22:00,  18.0,  99,  20.6,  19.7,  17.7,   3.0,  0.00, 
 06/07/09, 23:00,  17.9,  99,  20.5,  19.7,  17.7,   0.0,  0.00, 
 06/07/10, 00:00,  17.8,  99,  20.3,  19.7,  17.8,   0.0,  0.00, 
 06/07/10, 01:00,  17.6,  99,  20.2,  19.7,  17.8,   0.0,  0.00, 
 06/07/10, 02:00,  17.5,  99,  20.0,  19.7,  17.8,   0.5,  0.00, 
 06/07/10, 03:00,  16.9,  99,  19.9,  19.6,  17.8,   0.0,  0.00, 
 06/07/10, 04:00,  16.9,  99,  19.8,  19.6,  17.8,   0.0,  0.00, 
 06/07/10, 05:00,  16.4,  99,  19.6,  19.5,  17.8,   0.0,  0.00, 
 06/07/10, 06:00,  16.2,  99,  19.5,  19.4,  17.8,   0.0,  0.10, 
 06/07/10, 07:00,  16.4,  99,  19.4,  19.4,  17.9,   0.0,  0.39, 
 06/07/10, 08:00,  17.6,  99,  19.3,  19.3,  17.9,   0.0,  0.51, 
 06/07/10, 09:00,  18.1,  99,  19.4,  19.3,  17.9,   0.0,  0.92, 
 06/07/10, 10:00,  20.1,  94,  19.6,  19.2,  17.9,   0.0,  1.93, 
 06/07/10, 11:00,  21.4,  78,  20.1,  19.2,  17.9,   0.0,  2.90, 
 06/07/10, 12:00,  22.9,  72,  21.0,  19.2,  17.9,   0.0,  3.59, 
 06/07/10, 13:00,  23.5,  81,  22.1,  19.2,  17.9,   0.0,  3.05, 
 06/07/10, 14:00,  22.6,  88,  22.7,  19.4,  17.9,   0.0,  1.86, 
 06/07/10, 15:00,  23.4,  78,  22.8,  19.6,  17.8,   0.0,  2.46, 
 06/07/10, 16:00,  21.9,  83,  22.9,  19.8,  17.9,   0.0,  1.09, 
 06/07/10, 17:00,  21.0,  93,  22.8,  20.0,  17.9,   0.0,  0.52, 
 06/07/10, 18:00,  20.2,  98,  22.7,  20.1,  17.9,   0.0,  0.32, 
 06/07/10, 19:00,  19.3,  99,  22.5,  20.3,  17.9,   0.0,  0.15, 
 06/07/10, 20:00,  18.7,  99,  22.2,  20.3,  17.9,   0.0,  0.00, 
 06/07/10, 21:00,  18.6,  99,  21.9,  20.4,  17.9,   0.0,  0.00, 
 06/07/10, 22:00,  18.6,  99,  21.7,  20.4,  18.0,   0.0,  0.00, 
 06/07/10, 23:00,  18.1,  99,  21.5,  20.4,  18.0,   0.0,  0.00, 
 06/07/11, 00:00,  17.7,  99,  21.3,  20.4,  18.0,   0.0,  0.00, 
 06/07/11, 01:00,  17.5,  99,  21.1,  20.4,  18.0,   0.0,  0.00, 
 06/07/11, 02:00,  17.4,  98,  20.9,  20.3,  18.0,   0.0,  0.00, 
 06/07/11, 03:00,  16.6,  99,  20.7,  20.3,  18.1,   0.0,  0.00, 
 06/07/11, 04:00,  16.9,  99,  20.5,  20.2,  18.1,   0.0,  0.00, 
 06/07/11, 05:00,  17.3,  96,  20.3,  20.1,  18.1,   0.0,  0.00, 
 06/07/11, 06:00,  18.4,  85,  20.1,  20.1,  18.1,   0.0,  0.09, 
 06/07/11, 07:00,  18.7,  93,  20.0,  20.0,  18.2,   0.0,  0.37, 
 06/07/11, 08:00,  20.2,  91,  20.0,  19.9,  18.2,   0.0,  0.93, 
 06/07/11, 09:00,  19.7,  96,  20.1,  19.8,  18.2,   0.0,  1.08, 
 06/07/11, 10:00,  20.3,  94,  20.4,  19.8,  18.2,   0.0,  0.83, 
 06/07/11, 11:00,  20.5,  95,  20.5,  19.7,  18.2,   0.0,  0.86, 
 06/07/11, 12:00,  21.1,  96,  20.7,  19.7,  18.1,   0.0,  1.21, 
 06/07/11, 13:00,  20.0,  99,  20.9,  19.7,  18.2,   0.0,  1.08, 
 06/07/11, 14:00,  21.1,  96,  21.1,  19.8,  18.2,   0.0,  1.09, 
 06/07/11, 15:00,  20.4,  99,  21.2,  19.8,  18.2,   0.0,  0.77, 
 06/07/11, 16:00,  20.4,  98,  21.3,  19.9,  18.2,   0.0,  0.60, 
 06/07/11, 17:00,  20.6,  99,  21.3,  19.9,  18.2,   0.0,  0.54, 
 06/07/11, 18:00,  20.2,  98,  21.3,  20.0,  18.2,   0.0,  0.39, 
 06/07/11, 19:00,  19.6,  99,  21.3,  20.0,  18.2,   0.0,  0.05, 
 06/07/11, 20:00,  19.5,  99,  21.2,  20.0,  18.1,   0.0,  0.00, 
 06/07/11, 21:00,  18.7,  99,  21.0,  20.1,  18.2,   0.0,  0.00, 
 06/07/11, 22:00,  18.9,  99,  20.9,  20.1,  18.2,   0.0,  0.00, 
 06/07/11, 23:00,  18.8,  99,  20.7,  20.1,  18.2,   0.5,  0.00, 
 06/07/12, 00:00,  18.9,  99,  20.6,  20.0,  18.2,   0.0,  0.00, 
 06/07/12, 01:00,  18.6,  99,  20.5,  20.0,  18.2,   0.0,  0.00, 
 06/07/12, 02:00,  18.5,  99,  20.4,  20.0,  18.2,   0.0,  0.00, 
 06/07/12, 03:00,  18.5,  99,  20.3,  19.9,  18.3,   0.0,  0.00, 
 06/07/12, 04:00,  18.5,  99,  20.2,  19.9,  18.3,   0.5,  0.00, 
 06/07/12, 05:00,  18.3,  99,  20.1,  19.8,  18.3,   0.5,  0.00, 
 06/07/12, 06:00,  18.5,  99,  20.0,  19.8,  18.2,   0.0,  0.01, 
 06/07/12, 07:00,  18.6,  99,  19.9,  19.7,  18.3,   0.0,  0.12, 
 06/07/12, 08:00,  19.3,  99,  19.9,  19.7,  18.3,   0.0,  0.38, 
 06/07/12, 09:00,  19.1,  99,  20.0,  19.7,  18.3,   0.0,  0.53, 
 06/07/12, 10:00,  19.4,  99,  20.1,  19.6,  18.3,   0.5,  0.47, 
 06/07/12, 11:00,  19.9,  99,  20.2,  19.6,  18.3,   0.0,  0.58, 
 06/07/12, 12:00,  19.9,  99,  20.3,  19.6,  18.3,   0.0,  0.55, 
 06/07/12, 13:00,  19.9,  99,  20.4,  19.6,  18.3,   0.0,  0.43, 
 06/07/12, 14:00,  19.7,  99,  20.5,  19.6,  18.2,   0.0,  0.59, 
 06/07/12, 15:00,  20.7,  99,  20.6,  19.6,  18.3,   0.0,  1.10, 
 06/07/12, 16:00,  20.2,  99,  20.8,  19.6,  18.3,   0.0,  0.41, 
 06/07/12, 17:00,  19.5,  99,  20.8,  19.7,  18.3,   1.0,  0.30, 
 06/07/12, 18:00,  19.1,  99,  20.8,  19.7,  18.3,   0.0,  0.18, 
 06/07/12, 19:00,  18.5,  99,  20.8,  19.7,  18.3,   0.0,  0.04, 
 06/07/12, 20:00,  18.4,  99,  20.7,  19.8,  18.3,   0.0,  0.00, 
 06/07/12, 21:00,  18.8,  99,  20.5,  19.8,  18.2,   0.0,  0.00, 
 06/07/12, 22:00,  18.5,  99,  20.4,  19.8,  18.3,   0.0,  0.00, 
 06/07/12, 23:00,  19.0,  99,  20.2,  19.8,  18.3,   0.0,  0.00, 
 06/07/13, 00:00,  18.7,  99,  20.1,  19.7,  18.3,   0.0,  0.00, 
 06/07/13, 01:00,  18.5,  99,  20.0,  19.7,  18.2,   0.0,  0.00, 
 06/07/13, 02:00,  18.9,  99,  19.9,  19.7,  18.2,   0.0,  0.00, 
 06/07/13, 03:00,  18.6,  99,  19.8,  19.6,  18.3,   0.0,  0.00, 
 06/07/13, 04:00,  18.6,  99,  19.8,  19.6,  18.3,   0.0,  0.00, 
 06/07/13, 05:00,  18.7,  99,  19.7,  19.6,  18.2,   0.0,  0.00, 
 06/07/13, 06:00,  18.8,  99,  19.6,  19.5,  18.3,   0.0,  0.00, 
 06/07/13, 07:00,  19.0,  99,  19.6,  19.5,  18.3,   0.0,  0.05, 
 06/07/13, 08:00,  19.9,  99,  19.6,  19.4,  18.2,   0.0,  0.27, 
 06/07/13, 09:00,  20.6,  99,  19.6,  19.4,  18.3,   0.0,  0.60, 
 06/07/13, 10:00,  22.3,  96,  19.8,  19.4,  18.3,   0.5,  1.34, 
 06/07/13, 11:00,  21.3,  99,  20.2,  19.4,  18.3,   0.0,  1.81, 
 06/07/13, 12:00,  21.2,  99,  20.7,  19.4,  18.3,   0.0,  0.80, 
 06/07/13, 13:00,  20.5,  99,  21.1,  19.4,  18.3,   8.5,  0.52, 
 06/07/13, 14:00,  20.6,  99,  21.1,  19.6,  18.2,   0.0,  0.64, 
 06/07/13, 15:00,  20.9,  99,  21.2,  19.6,  18.1,   0.0,  1.03, 
 06/07/13, 16:00,  20.0,  99,  21.3,  19.7,  18.3,   1.5,  0.54, 
 06/07/13, 17:00,  20.0,  99,  21.3,  19.8,  18.3,   3.0,  0.22, 
 06/07/13, 18:00,  19.9,  99,  21.2,  19.9,  18.3,   0.5,  0.39, 
 06/07/13, 19:00,  20.0,  99,  21.2,  20.0,  18.3,   0.0,  0.08, 
 06/07/13, 20:00,  19.9,  99,  21.0,  20.0,  18.3,   0.0,  0.00, 
 06/07/13, 21:00,  18.9,  99,  20.9,  20.0,  18.4,   0.0,  0.00, 
 06/07/13, 22:00,  19.9,  97,  20.8,  20.0,  18.4,   0.0,  0.00, 
 06/07/13, 23:00,  19.8,  95,  20.6,  20.0,  18.4,   0.0,  0.00, 
 06/07/14, 00:00,  18.7,  99,  20.5,  20.0,  18.4,   0.0,  0.00, 
 06/07/14, 01:00,  19.8,  94,  20.4,  20.0,  18.4,   0.0,  0.00, 
 06/07/14, 02:00,  20.1,  92,  20.2,  19.9,  18.4,   0.0,  0.00, 
 06/07/14, 03:00,  20.4,  90,  20.1,  19.9,  18.4,   0.0,  0.00, 
 06/07/14, 04:00,  20.5,  88,  20.0,  19.9,  18.4,   0.0,  0.00, 
 06/07/14, 05:00,  20.2,  89,  19.9,  19.8,  18.4,   0.0,  0.00, 
 06/07/14, 06:00,  20.4,  87,  19.8,  19.8,  18.5,   0.0,  0.01, 
 06/07/14, 07:00,  20.0,  96,  19.8,  19.7,  18.5,   0.0,  0.33, 
 06/07/14, 08:00,  20.9,  98,  19.8,  19.7,  18.5,   0.0,  0.97, 
 06/07/14, 09:00,  21.4,  92,  20.0,  19.6,  18.5,   0.0,  1.17, 
 06/07/14, 10:00,  20.7,  97,  20.3,  19.6,  18.5,   0.0,  0.91, 
 06/07/14, 11:00,  23.0,  94,  20.6,  19.6,  18.5,   0.0,  1.68, 
 06/07/14, 12:00,  22.3,  90,  21.0,  19.6,  18.4,   0.0,  1.57, 
 06/07/14, 13:00,  23.8,  87,  21.5,  19.7,  18.5,   0.5,  1.99, 
 06/07/14, 14:00,  23.8,  89,  21.9,  19.7,  18.5,   0.0,  2.39, 
 06/07/14, 15:00,  23.5,  85,  22.2,  19.9,  18.4,   0.0,  1.06, 
 06/07/14, 16:00,  24.6,  83,  22.3,  20.0,  18.4,   0.0,  2.06, 
 06/07/14, 17:00,  24.3,  80,  22.6,  20.1,  18.3,   0.0,  1.58, 
 06/07/14, 18:00,  23.2,  89,  22.7,  20.2,  18.4,   0.0,  0.90, 
 06/07/14, 19:00,  21.6,  91,  22.7,  20.4,  18.5,   0.0,  0.28, 
 06/07/14, 20:00,  21.2,  93,  22.5,  20.5,  18.5,   0.0,  0.00, 
 06/07/14, 21:00,  20.5,  96,  22.2,  20.6,  18.5,   0.0,  0.00, 
 06/07/14, 22:00,  20.7,  90,  22.0,  20.6,  18.5,   0.0,  0.00, 
 06/07/14, 23:00,  20.3,  90,  21.7,  20.6,  18.5,   0.0,  0.00, 
 06/07/15, 00:00,  20.4,  88,  21.5,  20.6,  18.5,   0.0,  0.00, 
 06/07/15, 01:00,  19.6,  91,  21.3,  20.6,  18.5,   0.0,  0.00, 
 06/07/15, 02:00,  20.0,  86,  21.0,  20.6,  18.5,   0.0,  0.00, 
 06/07/15, 03:00,  20.0,  87,  20.8,  20.5,  18.6,   0.0,  0.00, 
 06/07/15, 04:00,  19.9,  87,  20.6,  20.4,  18.6,   0.0,  0.00, 
 06/07/15, 05:00,  19.4,  90,  20.4,  20.4,  18.6,   0.0,  0.00, 
 06/07/15, 06:00,  20.2,  84,  20.3,  20.3,  18.6,   0.0,  0.01, 
 06/07/15, 07:00,  20.0,  88,  20.1,  20.2,  18.6,   0.0,  0.07, 
 06/07/15, 08:00,  20.8,  86,  20.1,  20.1,  18.6,   0.0,  0.26, 
 06/07/15, 09:00,  20.9,  91,  20.1,  20.1,  18.6,   0.0,  0.68, 
 06/07/15, 10:00,  20.8,  94,  20.2,  20.0,  18.6,   0.0,  0.89, 
 06/07/15, 11:00,  21.5,  89,  20.4,  20.0,  18.7,   0.0,  1.25, 
 06/07/15, 12:00,  22.3,  90,  20.7,  19.9,  18.7,   0.0,  1.22, 
 06/07/15, 13:00,  23.2,  80,  21.0,  19.9,  18.7,   0.0,  2.26, 
 06/07/15, 14:00,  23.3,  84,  21.5,  20.0,  18.6,   0.0,  2.37, 
 06/07/15, 15:00,  23.3,  85,  21.7,  20.0,  18.6,   0.0,  1.22, 
 06/07/15, 16:00,  21.5,  98,  21.9,  20.1,  18.7,   0.0,  0.71, 
 06/07/15, 17:00,  21.7,  99,  21.9,  20.2,  18.6,   0.0,  0.55, 
 06/07/15, 18:00,  20.6,  99,  21.9,  20.3,  18.6,   0.0,  0.14, 
 06/07/15, 19:00,  18.9,  99,  21.8,  20.3,  18.6,   0.0,  0.00, 
 06/07/15, 20:00,  18.5,  99,  21.7,  20.4,  18.6,   2.0,  0.00, 
 06/07/15, 21:00,  18.5,  99,  21.4,  20.4,  18.7,   9.0,  0.00, 
 06/07/15, 22:00,  18.3,  99,  21.1,  20.5,  18.7,   1.5,  0.00, 
 06/07/15, 23:00,  18.1,  99,  20.9,  20.5,  18.7,   6.5,  0.00, 
 06/07/16, 00:00,  17.7,  99,  20.7,  20.6,  18.7,   4.5,  0.00, 
 06/07/16, 01:00,  17.4,  99,  20.5,  20.5,  18.8,   2.0,  0.00, 